Yakima, WA
on Saturday, February 16, 2013

Saturday
Previous Day Next Day
Daily Summary
 ActualAverageRecord
Temperature
Mean Temperature °F / °C 36°F / 2°C  
Max Temperature 59°F / 15°C 47°F / 8°C 67°F / 19°C (1977)
Min Temperature 26°F / -3°C 26°F / -3°C 3°F / -16°C (1956)
Degree Days
Heating Degree Days 22 29  
Month to date heating degree days 383 481  
Since 1 July heating degree days 3652 4199  
Cooling Degree Days 0 0  
Month to date cooling degree days 0 0  
Year to date cooling degree days 0 0  
Moisture
Dew Point 27°F / -3°C   
Average Humidity 63    
Maximum Humidity 92    
Minimum Humidity 33    
Precipitation
Precipitation 0.00 in / 0.00 cm 0.03 in / 0.76 cm 0.42 in / 1.07 cm (1959)
Month to date precipitation T 0.46  
Year to date precipitation 0.10 1.60  
Snow
Snow 0.00 in / 0.00 cm 0.10 in / 0.25 cm 3.40 in / 8.64 cm (1989)
Month to date snowfall 0.0 1.7  
Year to date snowfall 1.1 7.0  
Since 1 July snowfall 15.3 20.0  
Snow Depth 0.00 in / 0.00 cm   
Wind
Wind Speed 6 mph / 10 km/h   
Max Wind Speed 29 mph / 47 km/h   
Max Gust Speed 36 mph / 58 km/h   
Visibility 9 miles / 14 kilometers   
Events     

Key: T is trace of precipitation, MM is missing value
Source: NWS Daily Summary
Time(PST)TemperatureDew PointHumidity Pressure Visibility Wind DirectionWind SpeedGust SpeedPrecipitationEvents Conditions
12:53 AM 30.0°F / -1.1°C 26.1°F / -3.3°C 85% 30.27 in / 1024.8 hPa 7.0 miles / 11.3 kilometers WNW 5.8 mph / 9.3 km/h - N/A   Clear
1:53 AM 30.0°F / -1.1°C 26.1°F / -3.3°C 85% 30.25 in / 1024.2 hPa 7.0 miles / 11.3 kilometers WNW 4.6 mph / 7.4 km/h - N/A   Clear
2:53 AM 28.9°F / -1.7°C 26.1°F / -3.3°C 89% 30.23 in / 1023.5 hPa 6.0 miles / 9.7 kilometers WNW 3.5 mph / 5.6 km/h - N/A   Clear
3:53 AM 27.0°F / -2.8°C 24.1°F / -4.4°C 89% 30.22 in / 1023.1 hPa 6.0 miles / 9.7 kilometers West 4.6 mph / 7.4 km/h - N/A   Clear
4:53 AM 27.0°F / -2.8°C 23.0°F / -5.0°C 85% 30.19 in / 1022.4 hPa 6.0 miles / 9.7 kilometers WNW 4.6 mph / 7.4 km/h - N/A   Clear
5:53 AM 27.0°F / -2.8°C 23.0°F / -5.0°C 85% 30.19 in / 1022.1 hPa 6.0 miles / 9.7 kilometers WNW 4.6 mph / 7.4 km/h - N/A   Clear
6:53 AM 26.1°F / -3.3°C 21.9°F / -5.6°C 84% 30.18 in / 1022.0 hPa 8.0 miles / 12.9 kilometers Calm Calm - N/A   Clear
7:53 AM 30.0°F / -1.1°C 25.0°F / -3.9°C 82% 30.18 in / 1022.0 hPa 7.0 miles / 11.3 kilometers Calm Calm - N/A   Clear
8:53 AM 34.0°F / 1.1°C 30.0°F / -1.1°C 85% 30.17 in / 1021.4 hPa 7.0 miles / 11.3 kilometers Calm Calm - N/A   Mostly Cloudy
9:53 AM 41.0°F / 5.0°C 33.1°F / 0.6°C 73% 30.14 in / 1020.7 hPa 10.0 miles / 16.1 kilometers Calm Calm - N/A   Mostly Cloudy
10:53 AM 45.0°F / 7.2°C 34.0°F / 1.1°C 65% 30.13 in / 1020.2 hPa 10.0 miles / 16.1 kilometers Calm Calm - N/A   Clear
11:53 AM 46.9°F / 8.3°C 34.0°F / 1.1°C 61% 30.11 in / 1019.5 hPa 10.0 miles / 16.1 kilometers Calm Calm - N/A   Clear
12:53 PM 52.0°F / 11.1°C 36.0°F / 2.2°C 54% 30.07 in / 1018.3 hPa 10.0 miles / 16.1 kilometers Calm Calm - N/A   Scattered Clouds
1:53 PM 55.9°F / 13.3°C 37.9°F / 3.3°C 51% 30.04 in / 1017.3 hPa 10.0 miles / 16.1 kilometers South 3.5 mph / 5.6 km/h - N/A   Scattered Clouds
2:53 PM 57.9°F / 14.4°C 28.9°F / -1.7°C 33% 30.02 in / 1016.4 hPa 10.0 miles / 16.1 kilometers WNW 15.0 mph / 24.1 km/h 20.7 mph / 33.3 km/h N/A   Scattered Clouds
3:53 PM 54.0°F / 12.2°C 28.0°F / -2.2°C 37% 30.04 in / 1017.1 hPa 10.0 miles / 16.1 kilometers West 25.3 mph / 40.7 km/h 33.4 mph / 53.7 km/h N/A   Scattered Clouds
4:53 PM 51.1°F / 10.6°C 26.1°F / -3.3°C 38% 30.06 in / 1017.7 hPa 10.0 miles / 16.1 kilometers West 17.3 mph / 27.8 km/h 25.3 mph / 40.7 km/h N/A   Scattered Clouds
5:53 PM 48.0°F / 8.9°C 26.1°F / -3.3°C 42% 30.06 in / 1017.9 hPa 10.0 miles / 16.1 kilometers West 13.8 mph / 22.2 km/h - N/A   Partly Cloudy
6:53 PM 46.9°F / 8.3°C 25.0°F / -3.9°C 42% 30.06 in / 1018.0 hPa 10.0 miles / 16.1 kilometers WNW 10.4 mph / 16.7 km/h 20.7 mph / 33.3 km/h N/A   Clear
7:53 PM 45.0°F / 7.2°C 25.0°F / -3.9°C 46% 30.05 in / 1017.6 hPa 10.0 miles / 16.1 kilometers WNW 9.2 mph / 14.8 km/h - N/A   Clear
8:53 PM 41.0°F / 5.0°C 25.0°F / -3.9°C 53% 30.08 in / 1018.6 hPa 10.0 miles / 16.1 kilometers West 5.8 mph / 9.3 km/h - N/A   Clear
9:53 PM 39.9°F / 4.4°C 24.1°F / -4.4°C 53% 30.08 in / 1018.6 hPa 10.0 miles / 16.1 kilometers WNW 6.9 mph / 11.1 km/h - N/A   Clear
10:53 PM 44.1°F / 6.7°C 25.0°F / -3.9°C 47% 30.06 in / 1017.8 hPa 10.0 miles / 16.1 kilometers WNW 12.7 mph / 20.4 km/h - N/A   Clear
11:53 PM 42.1°F / 5.6°C 25.0°F / -3.9°C 51% 30.08 in / 1018.5 hPa 10.0 miles / 16.1 kilometers ESE 4.6 mph / 7.4 km/h - N/A   Clear
Moon Phase
Feb. 16 Feb. 17 Feb. 25 Mar. 04 Mar. 11
Sunrise:07:03 AM (PST) Moon Rise:09:53 AM (PST)2/16
Sunset:05:29 PM (PST) Moon Set:No Moon Set/

Copyright © 2014 The Weather Underground, Inc.